• In Uzbekistan
  • List of Countries
  • For 7 days
  • Water Temperature
  • Satellite Maps
  • Weather Map
  • Weather Widgets
  • user-avatar
    Login

    Hourly Weather Mayrhofen

    Today, 21 July, Sunday

    Time Temperature Precipitation Wind Pressure Humidity
    00:00 +12°C° 0.2 mm 1 mps 622 mmHg 89%
    01:00 +12°C° 0 mm 1 mps 622 mmHg 87%
    02:00 +12°C° 0.1 mm 1 mps 622 mmHg 87%
    03:00 +12°C° 0.1 mm 1 mps 621 mmHg 87%
    04:00 +11°C° 0.1 mm 1 mps 621 mmHg 87%
    05:00 +13°C° 0.1 mm 1 mps 622 mmHg 86%
    06:00 +14°C° 0.1 mm 1 mps 622 mmHg 85%
    07:00 +15°C° 0 mm 1 mps 624 mmHg 84%
    08:00 +15°C° 1 mm 1 mps 624 mmHg 84%
    09:00 +16°C° 1 mm 2 mps 624 mmHg 84%
    10:00 +16°C° 1 mm 2 mps 624 mmHg 84%
    11:00 +17°C° 0.5 mm 2 mps 625 mmHg 80%
    12:00 +19°C° 0.5 mm 1 mps 625 mmHg 76%
    13:00 +19°C° 0.5 mm 1 mps 625 mmHg 72%
    14:00 +20°C° 0.3 mm 1 mps 625 mmHg 70%
    15:00 +19°C° 0.3 mm 2 mps 626 mmHg 67%
    16:00 +19°C° 0.3 mm 2 mps 626 mmHg 65%
    17:00 +18°C° 0.3 mm 2 mps 625 mmHg 72%
    18:00 +17°C° 0.3 mm 2 mps 625 mmHg 79%
    19:00 +16°C° 0.3 mm 1 mps 624 mmHg 86%
    20:00 +14°C° 0.1 mm 1 mps 624 mmHg 89%
    21:00 +12°C° 0.1 mm 1 mps 624 mmHg 91%
    22:00 +11°C° 0.1 mm 1 mps 624 mmHg 93%
    23:00 +10°C° 0 mm 1 mps 624 mmHg 92%

    Tomorrow, 22 July, Monday

    Time Temperature Precipitation Wind Pressure Humidity
    00:00 +10°C° 0 mm 1 mps 624 mmHg 91%
    01:00 +10°C° 0 mm 1 mps 624 mmHg 91%
    02:00 +10°C° 0 mm 1 mps 623 mmHg 90%
    03:00 +9°C° 0 mm 1 mps 623 mmHg 89%
    04:00 +9°C° 0 mm 1 mps 623 mmHg 87%
    05:00 +11°C° 0 mm 1 mps 624 mmHg 84%
    06:00 +13°C° 0 mm 1 mps 625 mmHg 80%
    07:00 +14°C° 0 mm 0 mps 626 mmHg 76%
    08:00 +16°C° 0 mm 1 mps 626 mmHg 68%
    09:00 +19°C° 0 mm 1 mps 627 mmHg 61%
    10:00 +21°C° 0 mm 1 mps 628 mmHg 54%
    11:00 +22°C° 0 mm 1 mps 628 mmHg 49%
    12:00 +23°C° 0 mm 1 mps 628 mmHg 45%
    13:00 +24°C° 0 mm 2 mps 628 mmHg 40%
    14:00 +24°C° 0 mm 2 mps 628 mmHg 42%
    15:00 +24°C° 0 mm 2 mps 628 mmHg 43%
    16:00 +24°C° 0 mm 2 mps 628 mmHg 44%
    17:00 +21°C° 0 mm 2 mps 627 mmHg 55%
    18:00 +19°C° 0 mm 2 mps 626 mmHg 66%
    19:00 +18°C° 0 mm 2 mps 626 mmHg 77%
    20:00 +16°C° 0 mm 1 mps 625 mmHg 82%
    21:00 +14°C° 0 mm 1 mps 625 mmHg 88%
    22:00 +13°C° 0 mm 1 mps 625 mmHg 94%
    23:00 +12°C° 0 mm 1 mps 624 mmHg 94%

    Day after tomorrow, 23 July, Tuesday

    Time Temperature Precipitation Wind Pressure Humidity
    00:00 +12°C° 0 mm 1 mps 624 mmHg 94%
    01:00 +10°C° 0 mm 0 mps 623 mmHg 94%
    02:00 +10°C° 0 mm 0 mps 623 mmHg 94%
    03:00 +9°C° 0 mm 0 mps 623 mmHg 93%
    04:00 +9°C° 0 mm 0 mps 623 mmHg 93%
    05:00 +11°C° 0 mm 0 mps 624 mmHg 87%
    06:00 +13°C° 0 mm 0 mps 624 mmHg 81%
    07:00 +15°C° 0 mm 0 mps 625 mmHg 75%
    08:00 +17°C° 0 mm 0 mps 626 mmHg 65%
    09:00 +21°C° 0 mm 1 mps 626 mmHg 55%
    10:00 +23°C° 0 mm 1 mps 627 mmHg 45%
    11:00 +24°C° 0 mm 1 mps 627 mmHg 41%
    12:00 +25°C° 0 mm 1 mps 627 mmHg 38%
    13:00 +26°C° 0 mm 2 mps 627 mmHg 35%
    14:00 +26°C° 0 mm 2 mps 627 mmHg 36%
    15:00 +26°C° 0 mm 2 mps 627 mmHg 37%
    16:00 +26°C° 0 mm 2 mps 627 mmHg 39%
    17:00 +24°C° 0 mm 2 mps 626 mmHg 49%
    18:00 +22°C° 0 mm 1 mps 625 mmHg 60%
    19:00 +20°C° 0 mm 1 mps 624 mmHg 70%
    20:00 +18°C° 0 mm 1 mps 624 mmHg 75%
    21:00 +15°C° 0 mm 1 mps 623 mmHg 80%
    22:00 +13°C° 0 mm 1 mps 623 mmHg 84%
    23:00 +13°C° 0 mm 1 mps 622 mmHg 85%

    24 July, Wednesday

    Time Temperature Precipitation Wind Pressure Humidity
    00:00 +13°C° 0 mm 1 mps 622 mmHg 86%
    01:00 +13°C° 0 mm 1 mps 622 mmHg 87%
    02:00 +13°C° 0 mm 1 mps 622 mmHg 88%
    03:00 +13°C° 0 mm 1 mps 622 mmHg 90%
    04:00 +12°C° 0 mm 1 mps 621 mmHg 91%
    05:00 +14°C° 0 mm 1 mps 622 mmHg 86%
    06:00 +16°C° 0 mm 1 mps 623 mmHg 80%
    07:00 +17°C° 0 mm 0 mps 624 mmHg 75%
    08:00 +19°C° 0 mm 0 mps 625 mmHg 66%
    09:00 +23°C° 0 mm 1 mps 625 mmHg 56%
    10:00 +25°C° 0 mm 1 mps 626 mmHg 47%
    11:00 +26°C° 0 mm 1 mps 626 mmHg 43%
    12:00 +27°C° 0 mm 1 mps 626 mmHg 39%
    13:00 +28°C° 0 mm 1 mps 626 mmHg 35%
    14:00 +28°C° 0 mm 2 mps 626 mmHg 37%
    15:00 +27°C° 0 mm 2 mps 626 mmHg 39%
    16:00 +27°C° 0 mm 2 mps 625 mmHg 40%
    17:00 +25°C° 0.1 mm 2 mps 625 mmHg 52%
    18:00 +23°C° 0.1 mm 2 mps 624 mmHg 64%
    19:00 +21°C° 0.1 mm 1 mps 624 mmHg 75%
    20:00 +20°C° 0.2 mm 1 mps 623 mmHg 80%
    21:00 +18°C° 0.2 mm 1 mps 623 mmHg 84%
    22:00 +15°C° 0.2 mm 0 mps 623 mmHg 89%
    23:00 +15°C° 0 mm 0 mps 622 mmHg 88%

    25 July, Thursday

    Time Temperature Precipitation Wind Pressure Humidity
    00:00 +16°C° 0 mm 1 mps 622 mmHg 88%
    01:00 +16°C° 0 mm 1 mps 622 mmHg 88%
    02:00 +15°C° 0 mm 1 mps 622 mmHg 89%
    03:00 +15°C° 0 mm 1 mps 622 mmHg 90%
    04:00 +15°C° 0 mm 1 mps 622 mmHg 92%
    05:00 +16°C° 0 mm 1 mps 622 mmHg 89%
    06:00 +18°C° 0 mm 1 mps 623 mmHg 87%
    07:00 +19°C° 0 mm 1 mps 623 mmHg 84%
    08:00 +21°C° 0 mm 1 mps 624 mmHg 76%
    09:00 +23°C° 0 mm 1 mps 624 mmHg 67%
    10:00 +25°C° 0 mm 1 mps 625 mmHg 58%
    11:00 +26°C° 0.2 mm 1 mps 625 mmHg 54%
    12:00 +27°C° 0.2 mm 1 mps 625 mmHg 50%
    13:00 +28°C° 0.2 mm 1 mps 625 mmHg 45%
    14:00 +28°C° 0.3 mm 1 mps 625 mmHg 47%
    15:00 +27°C° 0.3 mm 1 mps 624 mmHg 49%
    16:00 +26°C° 0.3 mm 1 mps 624 mmHg 51%
    17:00 +25°C° 1.4 mm 1 mps 623 mmHg 61%
    18:00 +23°C° 1.4 mm 1 mps 623 mmHg 72%
    19:00 +21°C° 1.4 mm 1 mps 622 mmHg 82%
    20:00 +20°C° 1.2 mm 1 mps 622 mmHg 84%
    21:00 +19°C° 1.2 mm 1 mps 622 mmHg 86%
    22:00 +18°C° 1.2 mm 1 mps 621 mmHg 88%
    23:00 +16°C° 0.1 mm 1 mps 621 mmHg 88%

    26 July, Friday

    Time Temperature Precipitation Wind Pressure Humidity
    00:00 +16°C° 0.1 mm 1 mps 621 mmHg 89%
    01:00 +16°C° 0.1 mm 1 mps 621 mmHg 89%
    02:00 +15°C° 0.1 mm 1 mps 620 mmHg 90%
    03:00 +15°C° 0.1 mm 1 mps 620 mmHg 91%
    04:00 +15°C° 0.1 mm 1 mps 620 mmHg 91%
    05:00 +16°C° 0.2 mm 1 mps 620 mmHg 89%
    06:00 +18°C° 0.2 mm 1 mps 621 mmHg 87%
    07:00 +19°C° 0.2 mm 1 mps 621 mmHg 85%
    08:00 +21°C° 0.8 mm 1 mps 622 mmHg 79%
    09:00 +22°C° 0.8 mm 1 mps 622 mmHg 73%
    10:00 +24°C° 0.8 mm 1 mps 622 mmHg 66%
    11:00 +24°C° 1.7 mm 1 mps 622 mmHg 64%
    12:00 +24°C° 1.7 mm 1 mps 622 mmHg 62%
    13:00 +25°C° 1.7 mm 1 mps 622 mmHg 59%
    14:00 +24°C° 1.8 mm 1 mps 622 mmHg 64%
    15:00 +23°C° 1.8 mm 1 mps 622 mmHg 69%
    16:00 +22°C° 1.8 mm 1 mps 621 mmHg 74%
    17:00 +21°C° 1.5 mm 1 mps 621 mmHg 79%
    18:00 +20°C° 1.5 mm 1 mps 621 mmHg 84%
    19:00 +19°C° 1.5 mm 1 mps 621 mmHg 89%
    20:00 +16°C° 1.2 mm 1 mps 620 mmHg 91%
    21:00 +15°C° 1.2 mm 1 mps 620 mmHg 93%
    22:00 +12°C° 1.2 mm 0 mps 620 mmHg 94%
    23:00 +13°C° 0.1 mm 1 mps 620 mmHg 95%
    Show more